Date String (YYYY-MM-DD hh:mm:ss) UTC,Instrument flags,Ambient pressure (hPa),Sample flow (lpm),Bypass flow (lpm),Sample temperature (°C),Ambient temperature (°C),ASC tube jacket temperature (°C),LED temperature (°C),Box temperature (°C),Sample RH (%),Span deviation,Mass concentration (μg/m³),Mass concentration (μg/m³),Mass concentration (μg/m³)
DateTimeUTC,F1_M11,P_M11,Q1_M11,Q2_M11,T1_M11,T2_M11,T3_M11,T4_M11,T5_M11,U1_M11,ZSPAN_M11,X0_M11,X2_M11,X1_M11
2022-05-02 07:00:00,,0822.5,4.98,0.00,28.4,27.5,00.0,37.5,30.2,19.5,0000.0,0009.84,0005.19,0004.34
2022-05-02 07:01:00,,0822.5,5.00,0.00,28.4,27.5,00.0,37.5,30.2,19.4,0000.0,0009.31,0004.99,0004.19
2022-05-02 07:02:00,,0822.4,5.00,0.00,28.4,27.5,00.0,37.4,30.2,19.3,0000.0,0008.76,0004.79,0004.06
2022-05-02 07:03:00,,0822.4,5.01,0.00,28.4,27.4,00.0,37.4,30.1,19.3,0000.0,0008.48,0004.62,0003.93
2022-05-02 07:04:00,,0822.4,4.99,0.00,28.4,27.4,00.0,37.4,30.1,19.4,0000.0,0008.10,0004.45,0003.81
2022-05-02 07:05:00,,0822.5,5.01,0.00,28.4,27.4,00.0,37.4,30.1,19.4,0000.0,0007.88,0004.31,0003.72
2022-05-02 07:06:00,,0822.4,4.99,0.00,28.4,27.4,00.0,37.4,30.1,19.4,0000.0,0007.83,0004.25,0003.65
2022-05-02 07:07:00,,0822.3,5.00,0.00,28.4,27.4,00.0,37.4,30.1,19.4,0000.0,0007.76,0004.22,0003.61
2022-05-02 07:08:00,,0822.3,5.01,0.00,28.3,27.4,00.0,37.4,30.1,19.4,0000.0,0007.66,0004.18,0003.61
2022-05-02 07:09:00,,0822.3,4.99,0.00,28.3,27.3,00.0,37.4,30.1,19.5,0000.0,0007.12,0004.18,0003.60
2022-05-02 07:10:00,,0822.2,5.02,0.00,28.3,27.3,00.0,37.4,30.0,19.5,0000.0,0007.17,0004.17,0003.59
2022-05-02 07:11:00,,0822.1,4.99,0.00,28.3,27.3,00.0,37.4,30.0,19.5,0000.0,0007.20,0004.18,0003.59
2022-05-02 07:12:00,,0822.2,4.99,0.00,28.3,27.3,00.0,37.3,30.0,19.6,0000.0,0007.14,0004.18,0003.60
2022-05-02 07:13:00,,0822.2,5.01,0.00,28.3,27.3,00.0,37.3,30.0,19.6,0000.0,0006.99,0004.15,0003.59
2022-05-02 07:14:00,,0822.2,4.98,0.00,28.3,27.3,00.0,37.3,30.0,19.6,0000.0,0007.00,0004.14,0003.59
2022-05-02 07:15:00,,0822.2,5.01,0.00,28.3,27.3,00.0,37.3,30.0,19.6,0000.0,0006.88,0004.12,0003.59
2022-05-02 07:16:00,,0822.2,5.00,0.00,28.3,27.3,00.0,37.3,30.0,19.7,0000.0,0006.99,0004.13,0003.59
2022-05-02 07:17:00,,0822.2,4.99,0.00,28.3,27.3,00.0,37.3,30.0,19.7,0000.0,0006.99,0004.14,0003.59
2022-05-02 07:18:00,,0822.2,5.01,0.00,28.3,27.3,00.0,37.3,30.0,19.7,0000.0,0006.99,0004.11,0003.59
2022-05-02 07:19:00,,0822.2,5.00,0.00,28.3,27.3,00.0,37.3,30.0,19.8,0000.0,0007.06,0004.10,0003.58
2022-05-02 07:20:00,,0822.2,4.99,0.00,28.2,27.3,00.0,37.3,30.0,19.8,0000.0,0007.13,0004.11,0003.58
2022-05-02 07:21:00,,0822.1,5.02,0.00,28.2,27.2,00.0,37.3,30.0,19.8,0000.0,0007.13,0004.14,0003.60
2022-05-02 07:22:00,,0822.1,4.99,0.00,28.2,27.2,00.0,37.2,30.0,19.8,0000.0,0007.46,0004.24,0003.63
2022-05-02 07:23:00,,0822.1,5.01,0.00,28.2,27.2,00.0,37.2,29.9,19.8,0000.0,0007.50,0004.27,0003.66
2022-05-02 07:24:00,,0822.1,4.99,0.00,28.2,27.2,00.0,37.2,29.9,19.9,0000.0,0007.68,0004.33,0003.69
2022-05-02 07:25:00,,0822.1,4.99,0.00,28.2,27.2,00.0,37.2,30.0,19.9,0000.0,0007.75,0004.39,0003.73
2022-05-02 07:26:00,,0822.1,5.02,0.00,28.2,27.2,00.0,37.2,30.0,19.9,0000.0,0007.88,0004.47,0003.77
2022-05-02 07:27:00,,0822.0,4.99,0.00,28.2,27.2,00.0,37.2,29.9,20.0,0000.0,0008.02,0004.55,0003.82
2022-05-02 07:28:00,,0822.0,5.02,0.00,28.2,27.2,00.0,37.2,29.9,20.0,0000.0,0008.04,0004.60,0003.88
2022-05-02 07:29:00,,0821.8,4.99,0.00,28.2,27.2,00.0,37.2,29.9,20.1,0000.0,0008.11,0004.70,0003.96
2022-05-02 07:30:00,,0821.9,5.00,0.00,28.2,27.2,00.0,37.2,29.9,20.1,0000.0,0008.29,0004.86,0004.07
2022-05-02 07:31:00,,0821.8,5.01,0.00,28.2,27.2,00.0,37.2,29.9,20.1,0000.0,0008.51,0005.02,0004.18
2022-05-02 07:32:00,,0821.8,4.98,0.00,28.2,27.2,00.0,37.2,29.9,20.2,0000.0,0008.66,0005.14,0004.30
2022-05-02 07:33:00,,0821.8,5.02,0.00,28.1,27.2,00.0,37.2,29.9,20.2,0000.0,0008.69,0005.21,0004.41
2022-05-02 07:34:00,,0821.8,4.99,0.00,28.1,27.1,00.0,37.2,29.9,20.2,0000.0,0008.93,0005.36,0004.53
2022-05-02 07:35:00,,0821.8,5.01,0.00,28.1,27.1,00.0,37.1,29.9,20.2,0000.0,0009.26,0005.55,0004.70
2022-05-02 07:36:00,,0821.8,5.00,0.00,28.1,27.1,00.0,37.1,29.9,20.3,0000.0,0009.70,0005.77,0004.85
2022-05-02 07:37:00,,0821.8,4.99,0.00,28.1,27.1,00.0,37.1,29.9,20.3,0000.0,0009.96,0005.94,0004.99
2022-05-02 07:38:00,,0821.7,5.01,0.00,28.1,27.1,00.0,37.1,29.9,20.3,0000.0,0010.17,0006.11,0005.13
2022-05-02 07:39:00,,0822.0,4.99,0.00,28.1,27.1,00.0,37.1,29.9,20.4,0000.0,0010.82,0006.28,0005.25
2022-05-02 07:40:00,,0822.0,4.99,0.00,28.1,27.1,00.0,37.1,29.9,20.4,0000.0,0011.26,0006.42,0005.35
2022-05-02 07:41:00,,0821.9,5.01,0.00,28.1,27.1,00.0,37.1,29.8,20.4,0000.0,0011.60,0006.53,0005.44
2022-05-02 07:42:00,,0822.0,4.99,0.00,28.1,27.1,00.0,37.1,29.8,20.4,0000.0,0011.94,0006.66,0005.53
2022-05-02 07:43:00,,0821.9,5.02,0.00,28.0,27.1,00.0,37.1,29.8,20.5,0000.0,0012.11,0006.78,0005.60
2022-05-02 07:44:00,,0822.0,5.00,0.00,28.0,27.0,00.0,37.1,29.8,20.4,0000.0,0012.49,0006.90,0005.67
2022-05-02 07:45:00,,0822.0,4.99,0.00,28.0,27.0,00.0,37.1,29.7,20.4,0000.0,0012.77,0006.99,0005.73
2022-05-02 07:46:00,,0821.9,5.01,0.00,28.0,27.0,00.0,37.0,29.7,20.4,0000.0,0012.74,0007.01,0005.73
2022-05-02 07:47:00,,0822.0,4.99,0.00,28.0,27.0,00.0,37.0,29.7,20.4,0000.0,0012.65,0006.99,0005.74
2022-05-02 07:48:00,,0821.9,5.00,0.00,28.0,27.0,00.0,37.0,29.7,20.3,0000.0,0012.74,0006.98,0005.76
2022-05-02 07:49:00,,0822.0,5.02,0.00,27.9,27.0,00.0,37.0,29.7,20.3,0000.0,0012.76,0006.96,0005.78
2022-05-02 07:50:00,,0822.0,4.98,0.00,27.9,26.9,00.0,37.0,29.7,20.4,0000.0,0012.43,0006.96,0005.79
2022-05-02 07:51:00,,0821.9,5.01,0.00,27.9,26.9,00.0,37.0,29.6,20.4,0000.0,0012.28,0006.98,0005.81
2022-05-02 07:52:00,,0821.9,4.99,0.00,27.9,26.9,00.0,37.0,29.6,20.4,0000.0,0012.11,0006.98,0005.82
2022-05-02 07:53:00,,0822.0,5.00,0.00,27.9,26.8,00.0,36.9,29.6,20.5,0000.0,0011.82,0006.93,0005.81
2022-05-02 07:54:00,,0821.9,5.01,0.00,27.9,26.9,00.0,36.9,29.6,20.5,0000.0,0011.80,0006.93,0005.81
2022-05-02 07:55:00,,0821.9,4.99,0.00,27.9,26.9,00.0,36.9,29.6,20.5,0000.0,0011.51,0006.91,0005.81
2022-05-02 07:56:00,,0821.9,5.00,0.00,27.8,26.9,00.0,36.9,29.6,20.6,0000.0,0011.38,0006.92,0005.81
2022-05-02 07:57:00,,0821.9,5.01,0.00,27.8,26.9,00.0,36.9,29.6,20.6,0000.0,0011.36,0006.95,0005.83
2022-05-02 07:58:00,,0822.0,4.99,0.00,27.8,26.9,00.0,36.9,29.6,20.7,0000.0,0011.36,0007.00,0005.86
2022-05-02 07:59:00,,0822.0,5.02,0.00,27.8,26.9,00.0,36.9,29.6,20.7,0000.0,0011.43,0007.06,0005.88
